Location: Unspecified
(49.1829°N, 0.0000°E)
Time: 01:47:39
(UTC+00:00)

A-11 Canister half - Visible Passes

Search period start: 04 April 2026 00:00
Search period end: 14 April 2026 00:00
Orbit: 1513 x 1686 km, 47.2° (Epoch: 28 March)

Date Brightness Start Highest point End Pass type
(mag) Time Alt. Az. Time Alt. Az. Time Alt. Az.
11 Apr 11.0 04:44:05 10° SSE 04:49:23 17° SE 04:54:47 10° E visible
12 Apr 11.0 04:21:40 10° SSE 04:26:30 15° SE 04:31:23 10° E visible
13 Apr 11.0 03:59:21 10° SSE 04:03:36 14° SE 04:07:54 10° E visible
